AST,Max TemperatureF,Mean TemperatureF,Min TemperatureF,Max Dew PointF,MeanDew PointF,Min DewpointF,Max Humidity, Mean Humidity, Min Humidity, Max Sea Level PressureIn, Mean Sea Level PressureIn, Min Sea Level PressureIn, Max VisibilityMiles, Mean VisibilityMiles, Min VisibilityMiles, Max Wind SpeedMPH, Mean Wind SpeedMPH, Max Gust SpeedMPH,PrecipitationIn, CloudCover, Events, WindDirDegrees
2013-5-1,90,82,75,75,70,63,94,70,40,29.89,29.81,29.77,9,6,5,17,10,25,0.00,4,,141
2013-5-2,95,86,76,72,67,63,83,56,26,29.84,29.78,29.74,9,5,4,21,12,26,0.00,3,,176
2013-5-3,97,88,79,79,71,66,94,63,37,29.85,29.78,29.74,10,7,6,17,8,,0.00,2,,130
2013-5-4,92,84,75,75,70,62,89,68,32,29.92,29.82,29.74,9,6,5,28,5,38,0.55,4,Rain-Thunderstorm,99
2013-5-5,91,82,74,70,65,60,73,57,33,29.88,29.81,29.74,9,6,4,17,9,,0.00,,,322
2013-5-6,94,87,80,66,61,54,58,43,26,29.86,29.81,29.77,9,8,7,18,8,,0.00,,,359
2013-5-7,97,88,78,73,61,54,74,43,18,29.88,29.80,29.74,7,5,1,14,5,,0.00,6,,159
2013-5-8,96,88,80,72,63,57,70,46,20,29.86,29.79,29.74,6,4,2,12,7,22,0.04,6,Rain,237
2013-5-9,93,86,80,74,66,55,79,52,22,29.85,29.80,29.77,6,3,2,17,6,,0.00,,,15
2013-5-10,96,88,79,66,56,48,58,32,19,29.87,29.82,29.77,9,6,4,15,7,,0.00,,,329
2013-5-11,106,94,81,72,60,43,66,37,12,29.81,29.75,29.68,9,8,7,14,6,,0.00,,,330
2013-5-12,103,92,80,70,63,46,66,40,15,29.77,29.72,29.68,7,5,4,13,5,,0.00,,,130
2013-5-13,103,90,78,68,58,45,57,32,8,29.77,29.72,29.68,6,5,4,10,4,,0.00,,,94
2013-5-14,100,88,75,72,61,50,47,34,16,29.78,29.73,29.68,6,3,2,20,8,,0.00,,,344
2013-5-15,100,92,83,70,59,43,58,37,11,29.77,29.72,29.68,7,6,5,15,10,,0.00,,,4
2013-5-16,103,93,83,70,56,37,62,30,5,29.74,29.68,29.65,7,6,6,12,5,,0.00,,,152
2013-5-17,101,93,85,70,54,37,55,27,12,29.86,29.77,29.65,7,5,4,24,15,31,0.00,,,331
2013-5-18,102,92,83,57,48,39,40,25,10,29.86,29.80,29.74,7,6,5,25,16,37,0.00,,,327
2013-5-19,98,89,80,59,50,41,48,27,9,29.81,29.75,29.71,9,8,7,21,12,,0.00,,,315
2013-5-20,98,90,82,66,57,49,51,33,12,29.78,29.72,29.68,9,5,4,16,8,,0.00,,,323
2013-5-21,98,89,80,70,64,55,55,43,23,29.75,29.70,29.65,6,5,4,16,8,,0.00,,,153
2013-5-22,106,96,85,73,66,45,58,43,13,29.76,29.71,29.65,6,6,5,15,8,,0.00,,,145
2013-5-23,101,92,84,75,57,32,74,32,10,29.82,29.76,29.71,9,5,1,109,17,25,0.00,,,338
2013-5-24,102,93,84,61,49,37,45,24,6,29.74,29.68,29.62,9,7,6,23,12,37,0.00,,,306
2013-5-25,106,94,82,75,59,34,79,39,9,29.68,29.63,29.59,10,8,7,15,9,,0.00,,,326
2013-5-26,95,86,77,77,69,57,84,56,24,29.68,29.65,29.62,9,6,6,12,6,,0.00,,,14
2013-5-27,101,90,80,75,64,50,84,44,12,29.71,29.66,29.62,9,6,4,12,5,,0.00,,,56
2013-5-28,103,92,82,79,66,48,84,46,14,29.73,29.67,29.62,9,8,6,15,6,,0.00,,,37
2013-5-29,101,93,85,72,60,43,62,33,12,29.98,29.70,29.65,7,5,4,22,12,33,0.00,,,344
2013-5-30,104,95,86,63,47,30,40,21,4,29.74,29.69,29.65,9,6,5,22,14,34,0.00,,,326
2013-5-31,105,95,85,59,47,36,40,21,9,29.68,29.63,29.59,9,6,6,21,11,32,0.00,,,318